• In India
  • List of Countries
  • For 7 days
  • Water Temperature
  • Satellite Maps
  • Weather Map
  • Weather Widgets
  • user-avatar
    Login

    Hourly Weather Popivka

    Today, 19 November, Monday

    Time Temperature Precipitation Wind Pressure Humidity
    00:00 +3°C° 0 mm 4 mps 767 mmHg 77%
    01:00 +3°C° 0 mm 4 mps 766 mmHg 78%
    02:00 +3°C° 0 mm 4 mps 766 mmHg 80%
    03:00 +2°C° 0 mm 5 mps 766 mmHg 81%
    04:00 +1°C° 0 mm 5 mps 766 mmHg 82%
    05:00 +1°C° 0 mm 5 mps 766 mmHg 83%
    06:00 +2°C° 0 mm 6 mps 765 mmHg 82%
    07:00 +2°C° 0 mm 6 mps 765 mmHg 81%
    08:00 +2°C° 0 mm 7 mps 765 mmHg 79%
    09:00 +2°C° 0.3 mm 8 mps 765 mmHg 79%
    10:00 +2°C° 0.3 mm 8 mps 765 mmHg 79%
    11:00 +4°C° 0.3 mm 8 mps 765 mmHg 79%
    12:00 +4°C° 0.8 mm 8 mps 765 mmHg 81%
    13:00 +3°C° 0.8 mm 9 mps 764 mmHg 83%
    14:00 +3°C° 0.8 mm 9 mps 764 mmHg 85%
    15:00 +3°C° 2.7 mm 9 mps 763 mmHg 87%
    16:00 +3°C° 2.7 mm 9 mps 762 mmHg 89%
    17:00 +5°C° 2.7 mm 9 mps 762 mmHg 91%
    18:00 +5°C° 3 mm 9 mps 762 mmHg 91%
    19:00 +5°C° 3 mm 9 mps 761 mmHg 91%
    20:00 +6°C° 3 mm 9 mps 761 mmHg 91%
    21:00 +6°C° 1 mm 9 mps 760 mmHg 91%
    22:00 +6°C° 1 mm 9 mps 760 mmHg 91%
    23:00 +6°C° 1 mm 9 mps 760 mmHg 92%

    Tomorrow, 20 November, Tuesday

    Time Temperature Precipitation Wind Pressure Humidity
    00:00 +7°C° 0.2 mm 8 mps 760 mmHg 92%
    01:00 +8°C° 0.2 mm 7 mps 759 mmHg 93%
    02:00 +8°C° 0.2 mm 6 mps 759 mmHg 93%
    03:00 +8°C° 0 mm 5 mps 759 mmHg 93%
    04:00 +8°C° 0 mm 5 mps 759 mmHg 93%
    05:00 +7°C° 0 mm 4 mps 759 mmHg 93%
    06:00 +8°C° 0.1 mm 4 mps 759 mmHg 92%
    07:00 +8°C° 0.1 mm 4 mps 759 mmHg 92%
    08:00 +8°C° 0.1 mm 5 mps 760 mmHg 91%
    09:00 +7°C° 0.1 mm 5 mps 760 mmHg 89%
    10:00 +7°C° 0.1 mm 6 mps 761 mmHg 86%
    11:00 +6°C° 0.1 mm 7 mps 761 mmHg 84%
    12:00 +5°C° 0 mm 7 mps 762 mmHg 81%
    13:00 +5°C° 0 mm 6 mps 762 mmHg 79%
    14:00 +6°C° 0 mm 5 mps 762 mmHg 76%
    15:00 +5°C° 0 mm 5 mps 763 mmHg 77%
    16:00 +5°C° 0 mm 5 mps 763 mmHg 78%
    17:00 +4°C° 0 mm 4 mps 764 mmHg 79%
    18:00 +4°C° 0 mm 4 mps 764 mmHg 79%
    19:00 +3°C° 0 mm 5 mps 765 mmHg 79%
    20:00 +2°C° 0 mm 5 mps 765 mmHg 79%
    21:00 +2°C° 0 mm 5 mps 765 mmHg 79%
    22:00 +3°C° 0 mm 4 mps 765 mmHg 80%
    23:00 +3°C° 0 mm 4 mps 766 mmHg 80%

    Day after tomorrow, 21 November, Wednesday

    Time Temperature Precipitation Wind Pressure Humidity
    00:00 +3°C° 0 mm 4 mps 766 mmHg 80%
    01:00 +1°C° 0 mm 4 mps 766 mmHg 81%
    02:00 +1°C° 0 mm 4 mps 766 mmHg 81%
    03:00 +1°C° 0 mm 5 mps 766 mmHg 81%
    04:00 +1°C° 0 mm 5 mps 765 mmHg 81%
    05:00 +1°C° 0 mm 5 mps 765 mmHg 81%
    06:00 +1°C° 0 mm 5 mps 765 mmHg 80%
    07:00 +1°C° 0 mm 5 mps 766 mmHg 80%
    08:00 -1°C° 0 mm 6 mps 766 mmHg 79%
    09:00 +1°C° 0 mm 6 mps 765 mmHg 76%
    10:00 +2°C° 0 mm 6 mps 765 mmHg 73%
    11:00 +3°C° 0 mm 6 mps 765 mmHg 70%
    12:00 +3°C° 0 mm 6 mps 765 mmHg 68%
    13:00 +3°C° 0 mm 6 mps 765 mmHg 66%
    14:00 +4°C° 0 mm 6 mps 765 mmHg 64%
    15:00 +3°C° 0 mm 5 mps 765 mmHg 66%
    16:00 +2°C° 0 mm 5 mps 765 mmHg 67%
    17:00 +2°C° 0 mm 5 mps 765 mmHg 69%
    18:00 +1°C° 0 mm 5 mps 765 mmHg 70%
    19:00 +1°C° 0 mm 5 mps 765 mmHg 72%
    20:00 -1°C° 0 mm 6 mps 766 mmHg 74%
    21:00 -1°C° 0 mm 6 mps 766 mmHg 76%
    22:00 0°C° 0 mm 5 mps 766 mmHg 77%
    23:00 -1°C° 0 mm 5 mps 766 mmHg 79%

    22 November, Thursday

    Time Temperature Precipitation Wind Pressure Humidity
    00:00 -1°C° 0 mm 5 mps 766 mmHg 79%
    01:00 -1°C° 0 mm 5 mps 766 mmHg 79%
    02:00 -1°C° 0 mm 5 mps 766 mmHg 79%
    03:00 -2°C° 0 mm 5 mps 766 mmHg 79%
    04:00 -2°C° 0 mm 5 mps 766 mmHg 78%
    05:00 -2°C° 0 mm 5 mps 766 mmHg 77%
    06:00 -2°C° 0 mm 5 mps 766 mmHg 76%
    07:00 -2°C° 0 mm 5 mps 766 mmHg 74%
    08:00 -2°C° 0 mm 5 mps 767 mmHg 73%
    09:00 -1°C° 0 mm 5 mps 767 mmHg 68%
    10:00 0°C° 0 mm 5 mps 767 mmHg 63%
    11:00 +1°C° 0 mm 5 mps 767 mmHg 58%
    12:00 +1°C° 0 mm 5 mps 767 mmHg 58%
    13:00 +3°C° 0 mm 4 mps 766 mmHg 57%
    14:00 +3°C° 0 mm 4 mps 766 mmHg 57%
    15:00 +1°C° 0 mm 4 mps 766 mmHg 61%
    16:00 0°C° 0 mm 4 mps 767 mmHg 66%
    17:00 -1°C° 0 mm 4 mps 767 mmHg 70%
    18:00 -1°C° 0 mm 4 mps 767 mmHg 73%
    19:00 -2°C° 0 mm 4 mps 767 mmHg 75%
    20:00 -2°C° 0 mm 4 mps 768 mmHg 77%
    21:00 -2°C° 0 mm 4 mps 768 mmHg 78%
    22:00 -2°C° 0 mm 4 mps 768 mmHg 79%
    23:00 -3°C° 0 mm 4 mps 768 mmHg 80%

    23 November, Friday

    Time Temperature Precipitation Wind Pressure Humidity
    00:00 -3°C° 0 mm 4 mps 768 mmHg 80%
    01:00 -3°C° 0 mm 4 mps 768 mmHg 80%
    02:00 -3°C° 0 mm 4 mps 768 mmHg 79%
    03:00 -3°C° 0 mm 4 mps 768 mmHg 79%
    04:00 -3°C° 0 mm 4 mps 768 mmHg 79%
    05:00 -3°C° 0 mm 4 mps 769 mmHg 79%
    06:00 -3°C° 0 mm 4 mps 769 mmHg 78%
    07:00 -3°C° 0 mm 4 mps 769 mmHg 78%
    08:00 -3°C° 0 mm 4 mps 770 mmHg 77%
    09:00 -2°C° 0 mm 4 mps 770 mmHg 71%
    10:00 -1°C° 0 mm 4 mps 770 mmHg 66%
    11:00 0°C° 0 mm 4 mps 771 mmHg 61%
    12:00 0°C° 0 mm 4 mps 771 mmHg 60%
    13:00 +1°C° 0 mm 4 mps 771 mmHg 60%
    14:00 +1°C° 0 mm 4 mps 771 mmHg 59%
    15:00 0°C° 0 mm 4 mps 771 mmHg 64%
    16:00 -1°C° 0 mm 4 mps 772 mmHg 69%
    17:00 -2°C° 0 mm 4 mps 772 mmHg 73%
    18:00 -2°C° 0 mm 4 mps 772 mmHg 75%
    19:00 -2°C° 0 mm 4 mps 773 mmHg 78%
    20:00 -2°C° 0 mm 4 mps 773 mmHg 80%
    21:00 -2°C° 0 mm 4 mps 773 mmHg 81%
    22:00 -2°C° 0 mm 4 mps 773 mmHg 83%
    23:00 -1°C° 0 mm 4 mps 773 mmHg 84%

    24 November, Saturday

    Time Temperature Precipitation Wind Pressure Humidity
    00:00 -1°C° 0 mm 4 mps 773 mmHg 84%
    01:00 -1°C° 0 mm 4 mps 773 mmHg 84%
    02:00 -1°C° 0 mm 4 mps 773 mmHg 84%
    03:00 -1°C° 0 mm 4 mps 773 mmHg 84%
    04:00 -2°C° 0 mm 4 mps 773 mmHg 84%
    05:00 -2°C° 0 mm 4 mps 773 mmHg 84%
    06:00 -2°C° 0 mm 4 mps 773 mmHg 83%
    07:00 -1°C° 0 mm 4 mps 773 mmHg 82%
    08:00 -1°C° 0 mm 4 mps 773 mmHg 81%
    09:00 0°C° 0 mm 4 mps 772 mmHg 76%
    10:00 +1°C° 0 mm 4 mps 772 mmHg 70%
    11:00 +4°C° 0 mm 4 mps 772 mmHg 65%
    12:00 +4°C° 0 mm 4 mps 772 mmHg 64%
    13:00 +4°C° 0 mm 4 mps 771 mmHg 63%
    14:00 +4°C° 0 mm 4 mps 771 mmHg 62%
    15:00 +3°C° 0 mm 4 mps 771 mmHg 66%
    16:00 +1°C° 0 mm 4 mps 771 mmHg 71%
    17:00 +1°C° 0 mm 3 mps 770 mmHg 75%
    18:00 +1°C° 0 mm 3 mps 770 mmHg 77%
    19:00 +1°C° 0 mm 3 mps 770 mmHg 79%
    20:00 0°C° 0 mm 3 mps 770 mmHg 81%
    21:00 0°C° 0 mm 3 mps 770 mmHg 82%
    22:00 0°C° 0 mm 3 mps 769 mmHg 83%
    23:00 +1°C° 0 mm 2 mps 769 mmHg 84%
    Show more